(401748) = 2005 YG242 = 2013 JT57

Discovered at Kitt Peak on 2005-12-30 by Spacewatch.

Orbit

Orbit type: Main Belt

Note: WebGL enabled browser required.

epoch2023-02-25.0
epoch JD2460000.5
perihelion date2020-04-09.72949
perihelion JD2458949.22949
argument of perihelion (°)262.13612
ascending node (°)80.49890
inclination (°)11.94131
eccentricity0.0428597
perihelion distance (AU)2.9269885
Tisserand w.r.t. Jupiter3.2
ΔV w.r.t. Earth (km/sec)11.3
semimajor axis (AU)3.0580559
mean anomaly (°)193.75379
mean daily motion (°/day)0.18430440
aphelion distance (AU)3.189
period (years)5.35
P-vector [x]0.93328052
P-vector [y]-0.18905312
P-vector [z]-0.30536270
Q-vector [x]0.29553743
Q-vector [y]0.88737511
Q-vector [z]0.35386867
absolute magnitude16.26
phase slope0.15
uncertainty0
referenceMPO 745323
observations used193
oppositions12
arc length (days)6315
first opposition used2005
last opposition used2023
residual rms (arc-secs)0.73
perturbers coarse indicatorM-v
perturbers precise indicator003Ek
first observation date used2005-12-30.0
last observation date used2023-04-15.0
computer nameMPCLINUX
JD of orbit computation2456877.938957
perihelion JD uncertainty (days)3.6955E-04
argument of perihelion uncertainty (°)7.5244E-05
ascending node uncertainty (°)2.0430E-05
inclination uncertainty (°)5.3574E-06
eccentricity uncertainty 5.9192E-08
perihelion distance uncertainty (AU)2.2802E-07
Minimum Orbit Intersection Distances (in AU)
for orbit epoch: 2460000.5, reference: E2023-H04
Mercury2.51612
Venus2.20978
Earth1.94641
Mars1.52001
Jupiter2.00737
Saturn5.97004
Uranus15.325
Neptune26.895

Observations

195 total observations over interval: 2005 12 30.21404 – 2023 04 15.298232
These data are available for download (format description).

Date (UT) J2000 RA J2000 Dec Magn Location Ref
2005 12 30.21404 07 25 58.04 +29 24 41.5 20.9 V 691 – Steward Observatory, Kitt Peak-Spacewatch MPS 159192
2005 12 30.23438 07 25 56.87 +29 24 47.9 21.1 V 691 – Steward Observatory, Kitt Peak-Spacewatch MPS 159192
2005 12 30.25464 07 25 55.78 +29 24 54.5 20.6 V 691 – Steward Observatory, Kitt Peak-Spacewatch MPS 159192
2006 01 07.18998 07 18 30.79 +30 03 34.9 20.6 V 691 – Steward Observatory, Kitt Peak-Spacewatch MPS 159192
2006 01 07.20739 07 18 29.74 +30 03 40.1 20.8 V 691 – Steward Observatory, Kitt Peak-Spacewatch MPS 159192
2006 01 07.22487 07 18 28.78 +30 03 44.5 20.8 V 691 – Steward Observatory, Kitt Peak-Spacewatch MPS 159192
2006 01 07.42138 07 18 17.20 +30 04 38.1   291 – LPL/Spacewatch II MPS 159192
2006 01 07.42603 07 18 16.94 +30 04 39.5   291 – LPL/Spacewatch II MPS 159192
2006 01 07.43026 07 18 16.70 +30 04 40.6   291 – LPL/Spacewatch II MPS 159192
2010 11 08.40463 05 42 38.23 +21 25 35.0 21.4 V 691 – Steward Observatory, Kitt Peak-Spacewatch MPS 483738
2010 11 08.42302 05 42 37.67 +21 25 37.9 21.7 V 691 – Steward Observatory, Kitt Peak-Spacewatch MPS 483738
2010 11 08.44098 05 42 37.20 +21 25 40.2 21.4 V 691 – Steward Observatory, Kitt Peak-Spacewatch MPS 483738
2010 12 03.16258 05 24 50.48 +22 28 48.7 20.5 V 691 – Steward Observatory, Kitt Peak-Spacewatch MPS 483738
2010 12 03.18034 05 24 49.47 +22 28 51.2 20.5 V 691 – Steward Observatory, Kitt Peak-Spacewatch MPS 483738
2010 12 03.19810 05 24 48.49 +22 28 54.1 20.7 V 691 – Steward Observatory, Kitt Peak-Spacewatch MPS 483738
2010 12 13.32933 05 15 13.42 +22 53 29.5 20.0 V G96 – Mt. Lemmon Survey MPS 483738
2010 12 13.33457 05 15 13.10 +22 53 30.0 20.0 V G96 – Mt. Lemmon Survey MPS 483738
2010 12 13.33984 05 15 12.81 +22 53 30.8 19.8 V G96 – Mt. Lemmon Survey MPS 483738
2010 12 13.34506 05 15 12.49 +22 53 31.7 19.9 V G96 – Mt. Lemmon Survey MPS 483738
2010 12 25.29018 05 04 09.19 +23 19 47.7 19.8 V G96 – Mt. Lemmon Survey MPS 483738
2010 12 25.29704 05 04 08.79 +23 19 48.3 20.6 V G96 – Mt. Lemmon Survey MPS 483738
2010 12 25.30394 05 04 08.43 +23 19 49.2 20.3 V G96 – Mt. Lemmon Survey MPS 483738
2010 12 25.31086 05 04 08.07 +23 19 50.0 20.4 V G96 – Mt. Lemmon Survey MPS 483738
2011 01 12.07799 04 51 23.43 +23 54 44.3 20.5 V G96 – Mt. Lemmon Survey MPS 483738
2011 01 12.08324 04 51 23.29 +23 54 45.2 20.6 V G96 – Mt. Lemmon Survey MPS 483738
2011 01 12.08848 04 51 23.11 +23 54 45.5 20.0 V G96 – Mt. Lemmon Survey MPS 483738
2011 01 12.09370 04 51 22.93 +23 54 46.2 20.4 V G96 – Mt. Lemmon Survey MPS 483738
2012 03 14.30814 10 42 59.865 +25 59 32.10 21.1 r F51 – Pan-STARRS 1, Haleakala MPS 483738
2012 03 14.31934 10 42 59.338 +25 59 33.78 21.0 r F51 – Pan-STARRS 1, Haleakala MPS 483738
2012 03 14.33086 10 42 58.787 +25 59 35.79 21.2 g F51 – Pan-STARRS 1, Haleakala MPS 483738
2013 04 10.41537 15 52 30.90 -10 47 25.8 20.8 V G96 – Mt. Lemmon Survey MPS 482448
2013 04 10.42230 15 52 30.75 -10 47 25.9 21.2 V G96 – Mt. Lemmon Survey MPS 482448
2013 04 10.42932 15 52 30.54 -10 47 24.7 21.1 V G96 – Mt. Lemmon Survey MPS 482448
2013 04 10.43635 15 52 30.36 -10 47 25.1 20.8 V G96 – Mt. Lemmon Survey MPS 482448
2013 05 08.44529 15 34 01.620 -10 22 23.80 20.4 w F51 – Pan-STARRS 1, Haleakala MPS 467638
2013 05 08.45936 15 34 00.889 -10 22 23.35 20.4 w F51 – Pan-STARRS 1, Haleakala MPS 467638
2013 05 08.47347 15 34 00.160 -10 22 22.81 20.5 w F51 – Pan-STARRS 1, Haleakala MPS 467638
2013 05 08.48760 15 33 59.429 -10 22 22.35 20.6 w F51 – Pan-STARRS 1, Haleakala MPS 467638
2013 05 15.38345 15 28 07.96 -10 19 52.3 20.4 V G96 – Mt. Lemmon Survey MPS 467638
2013 05 15.39113 15 28 07.57 -10 19 51.8 19.4 V G96 – Mt. Lemmon Survey MPS 467638
2013 05 15.39874 15 28 07.21 -10 19 52.1 19.9 V G96 – Mt. Lemmon Survey MPS 467638
2013 05 15.40634 15 28 06.78 -10 19 52.1 20.1 V G96 – Mt. Lemmon Survey MPS 467638
2013 06 04.37212 15 12 05.734 -10 30 34.91 20.6 w F51 – Pan-STARRS 1, Haleakala MPS 482448
2013 06 04.41640 15 12 03.811 -10 30 38.20 20.9 w F51 – Pan-STARRS 1, Haleakala MPS 482448
2014 07 04.53367 22 06 56.313 -25 22 35.91 21.0 w F51 – Pan-STARRS 1, Haleakala MPS 522276
2014 07 04.54352 22 06 56.225 -25 22 39.83 21.0 w F51 – Pan-STARRS 1, Haleakala MPS 522276
2014 07 04.55338 22 06 56.111 -25 22 43.59 21.0 w F51 – Pan-STARRS 1, Haleakala MPS 522276
2014 07 29.45892 21 56 29.396 -28 23 08.98 20.5 w F51 – Pan-STARRS 1, Haleakala MPS 525512
2014 07 29.46948 21 56 28.952 -28 23 13.71 20.5 w F51 – Pan-STARRS 1, Haleakala MPS 525512
2014 07 29.48002 21 56 28.504 -28 23 18.33 20.5 w F51 – Pan-STARRS 1, Haleakala MPS 525512
2014 07 29.49054 21 56 28.059 -28 23 22.89 20.6 w F51 – Pan-STARRS 1, Haleakala MPS 525512
2014 07 30.48110 21 55 47.629 -28 30 33.80 20.3 w F51 – Pan-STARRS 1, Haleakala MPS 525512
2014 07 30.49190 21 55 47.161 -28 30 38.47 20.4 w F51 – Pan-STARRS 1, Haleakala MPS 525512
2014 07 30.50269 21 55 46.699 -28 30 43.08 20.4 w F51 – Pan-STARRS 1, Haleakala MPS 525512
2014 07 30.51349 21 55 46.230 -28 30 47.77 20.4 w F51 – Pan-STARRS 1, Haleakala MPS 525512
2015 11 05.31454 03 34 05.00 +09 49 08.4 20.7 r G45 – Space Surveillance Telescope, Atom Site MPS 650418
2015 11 05.31990 03 34 04.80 +09 49 07.8 20.3 r G45 – Space Surveillance Telescope, Atom Site MPS 650418
2015 11 05.32480 03 34 04.46 +09 49 08.1 20.6 r G45 – Space Surveillance Telescope, Atom Site MPS 650418
2015 11 05.32956 03 34 04.28 +09 49 07.7 20.9 r G45 – Space Surveillance Telescope, Atom Site MPS 650418
2015 11 07.35921 03 32 20.117 +09 47 56.58 20.6 w F51 – Pan-STARRS 1, Haleakala MPS 650418
2015 11 07.38218 03 32 18.893 +09 47 55.85 20.4 w F51 – Pan-STARRS 1, Haleakala MPS 650418
2015 11 07.39356 03 32 18.283 +09 47 55.60 20.5 w F51 – Pan-STARRS 1, Haleakala MPS 650418
2015 11 09.04383 03 30 51.97 +09 47 06.1 19.3 R 950 – La Palma MPS 650418
2015 11 09.04451 03 30 51.90 +09 47 05.5 18.7 R 950 – La Palma MPS 650418
2015 11 09.04519 03 30 51.85 +09 47 05.4 19.2 R 950 – La Palma MPS 650418
2015 11 09.04587 03 30 51.82 +09 47 05.2 19.4 R 950 – La Palma MPS 650418
2016 01 04.30332 02 56 26.901 +11 28 04.14 21.3 w F51 – Pan-STARRS 1, Haleakala MPS 668201
2016 01 04.31625 02 56 26.850 +11 28 07.69 21.2 w F51 – Pan-STARRS 1, Haleakala MPS 668201
2016 01 04.32924 02 56 26.776 +11 28 10.83 21.4 w F51 – Pan-STARRS 1, Haleakala MPS 668201
2016 01 04.34222 02 56 26.728 +11 28 14.04 21.2 w F51 – Pan-STARRS 1, Haleakala MPS 668201
2016 01 13.28878 02 56 51.748 +12 09 33.08 21.7 w F51 – Pan-STARRS 1, Haleakala MPS 671626
2016 01 13.30118 02 56 51.856 +12 09 36.73 21.8 w F51 – Pan-STARRS 1, Haleakala MPS 671626
2016 01 13.32591 02 56 52.053 +12 09 44.10 21.5 w F51 – Pan-STARRS 1, Haleakala MPS 671626
2016 01 31.25193 03 03 01.437 +13 47 07.47 22.1 w F51 – Pan-STARRS 1, Haleakala MPS 678846
2016 01 31.26494 03 03 01.841 +13 47 12.01 21.8 w F51 – Pan-STARRS 1, Haleakala MPS 678846
2016 01 31.27771 03 03 02.207 +13 47 16.26 21.8 w F51 – Pan-STARRS 1, Haleakala MPS 678846
2016 01 31.29059 03 03 02.604 +13 47 20.63 21.5 w F51 – Pan-STARRS 1, Haleakala MPS 678846
2017 01 27.27812 09 07 58.54 +30 08 25.4 20.4 V G96 – Mt. Lemmon Survey MPS 762022
2017 01 27.28436 09 07 58.29 +30 08 27.0 20.4 V G96 – Mt. Lemmon Survey MPS 762022
2017 01 27.28865 09 07 58.01 +30 08 29.4 20.8 V G96 – Mt. Lemmon Survey MPS 762022
2017 01 27.29559 09 07 57.68 +30 08 31.5 20.4 V G96 – Mt. Lemmon Survey MPS 762022
2017 01 31.52023 09 04 13.923 +30 32 33.88 21.3 w F51 – Pan-STARRS 1, Haleakala MPS 765857
2017 01 31.53095 09 04 13.333 +30 32 37.37 21.5 w F51 – Pan-STARRS 1, Haleakala MPS 765857
2017 01 31.54169 09 04 12.738 +30 32 40.83 21.4 w F51 – Pan-STARRS 1, Haleakala MPS 765857
2017 01 31.55241 09 04 12.161 +30 32 44.22 21.3 w F51 – Pan-STARRS 1, Haleakala MPS 765857
2017 02 04.31155 09 00 51.33 +30 52 07.5 20.7 V G96 – Mt. Lemmon Survey MPS 767183
2017 02 04.31578 09 00 51.10 +30 52 09.1 20.4 V G96 – Mt. Lemmon Survey MPS 767183
2017 02 04.32004 09 00 50.84 +30 52 10.5 21.0 V G96 – Mt. Lemmon Survey MPS 767183
2017 02 04.32426 09 00 50.63 +30 52 11.5 20.9 V G96 – Mt. Lemmon Survey MPS 767183
2017 02 05.27696 08 59 59.92 +30 56 47.7 20.1 V G96 – Mt. Lemmon Survey MPS 767183
2017 02 05.28068 08 59 59.67 +30 56 47.5 20.1 V G96 – Mt. Lemmon Survey MPS 767183
